Find Starlink 5448

NORAD ID: 54770 Int'l Des: 2022-175 Owner: SPXS Country: US Constellation: starlink operational
LEOCIRCULAR

Live Position

Loading 3D Globe...

About Starlink 5448

Description loading...

Upcoming Passes

Passes for default location (London). Set your location on the main map for personalized predictions.

Altitude History

Loading altitude history...

Two-Line Element Set

1 54770U 22175N 26126.42913102 -.00000259 00000-0 18132-5 0 9996
2 54770 53.2166 130.1021 0001175 81.7454 278.3671 15.08835721188842
Epoch: May 6, 2026 • Age: 9 hours

Current Status

Altitude 539.9 km
Velocity 7.59 km/s
Sub-Earth Point 7.79°N, 153°E
Launch Date Dec 17, 2022
Age 3.3 years
Type internet

Technical Details

Classification Payload
Mass 305.00 kg
Dry Mass 290.00 kg
Total Mass 305.00 kg
Length 0.20 m
Diameter 2.80 m
Span 9.00 m
Shape Box + pan
Manufacturer SPXS
Bus Type Starlink
Phase Status In Orbit
Owner/State SPXS/US

Most Searched